Theta_e
306 303 299 297 295 294 294 293 293 294 294 294 294 294 294 294 295 294 295 295 294 295 296 295 297 299 299 300 302 301 300 300 301 303 304 305 305 305 304 303 303 304 304 303 303 303 303 297 300 300 299 297 297 296
294 293 293 293 294 294 294 294 294 294 295 295 295 295 294 294 295 294 295 294 293 294 296 294 294 295 295 296 297 298 299 300 302 303 303 303 304 304 303 302 300 301 302 302 301 301 301 298 298 296 295 294 294 293
293 293 293 294 294 294 295 294 294 294 294 294 294 294 294 294 294 293 292 293 293 293 295 295 296 294 294 294 294 297 298 298 297 297 299 301 300 301 300 300 300 300 300 300 300 300 298 295 295 295 293 293 293 293
294 294 294 294 293 293 293 292 292 292 292 292 292 293 293 293 293 293 293 293 293 293 294 296 294 294 294 294 294 294 294 295 295 296 296 299 299 298 299 300 300 300 299 299 299 299 297 294 293 292 294 293 294 293
293 293 293 292 292 292 292 292 292 292 292 292 292 292 292 292 292 293 293 293 293 293 294 294 294 293 294 293 293 293 294 294 293 295 295 297 297 298 298 298 299 298 299 298 298 296 296 294 292 293 291 291 290 289
292 292 292 292 292 292 291 291 291 292 292 292 292 292 292 292 292 292 294 293 292 292 292 295 294 293 293 293 292 292 292 292 292 294 296 296 296 296 298 298 296 295 294 295 295 293 293 293 292 291 290 290 290 289
291 291 291 290 290 290 291 291 291 291 291 291 291 291 291 291 292 293 294 293 291 291 291 292 293 293 292 292 292 291 292 291 291 293 294 295 294 294 297 297 295 292 292 292 291 292 292 292 291 290 290 290 289 289
291 290 290 290 290 290 289 289 288 288 288 289 290 290 290 292 292 292 292 291 290 290 291 293 293 293 292 293 293 291 290 290 291 292 292 293 293 293 294 295 293 291 291 291 291 291 291 291 291 291 290 289 289 289
290 290 290 290 289 288 288 288 288 288 289 290 290 290 291 292 291 290 290 290 290 290 292 292 293 294 291 293 292 291 289 292 290 290 291 290 293 293 295 294 293 292 291 292 292 291 291 291 291 290 290 289 288 288
289 289 289 288 288 287 287 288 290 290 290 290 290 291 292 291 290 290 289 290 289 289 290 290 291 293 292 293 292 292 291 292 292 292 288 290 293 293 292 291 292 292 292 292 290 291 290 290 289 289 289 288 287 286
289 288 288 288 288 287 288 289 290 290 290 290 290 290 290 290 290 290 290 290 289 291 289 290 291 292 291 292 292 291 291 290 291 291 290 293 293 293 290 290 291 291 291 290 290 290 289 289 289 288 288 287 285 285
289 288 288 288 288 287 287 288 290 290 291 290 290 290 289 290 289 289 289 287 288 292 290 292 293 290 290 289 290 290 290 289 291 286 289 292 293 286 287 288 288 288 288 289 289 288 288 289 288 286 285 285 284 283
289 289 288 288 287 287 287 290 290 291 291 290 289 289 288 289 289 290 291 291 290 290 291 291 292 290 289 288 289 289 290 291 287 289 291 293 287 287 288 289 290 289 288 288 287 286 286 285 284 283 283 283 282 281
290 289 289 289 288 288 290 290 290 290 289 290 289 289 290 290 289 292 292 292 290 289 289 290 291 291 290 289 289 289 290 287 290 290 291 290 286 286 287 286 286 286 284 283 282 282 281 281 281 281 280 280 279 279
290 290 289 290 289 288 289 290 290 289 288 290 288 290 289 289 288 289 288 289 290 289 289 289 289 289 290 290 289 289 289 289 290 291 290 287 285 284 283 282 280 279 279 279 278 277 278 278 278 278 278 277 277 277
290 291 291 290 289 289 289 289 289 289 290 290 288 288 289 287 290 288 287 287 288 288 287 288 290 290 290 290 289 289 290 289 291 289 287 284 283 282 281 280 279 278 277 276 276 276 276 275 274 274 274 274 275 275
290 291 291 291 291 290 290 290 289 289 291 289 289 289 289 289 289 290 290 289 289 288 290 290 290 289 286 289 288 289 289 291 288 286 283 282 281 281 280 279 278 277 277 276 276 276 276 275 274 273 272 273 273 274
292 292 291 291 291 291 291 290 289 289 290 290 289 290 289 289 290 290 289 289 288 288 289 290 290 289 290 290 290 290 288 285 283 282 280 279 279 278 277 276 276 275 275 275 274 274 273 274 273 272 271 272 272 271
291 291 292 291 290 291 292 290 289 290 289 290 290 290 290 289 290 290 290 290 289 288 288 289 290 291 290 290 288 286 282 280 280 278 277 276 275 274 274 273 274 273 272 272 273 271 270 270 270 270 270 270 269 270
291 291 292 292 291 291 291 290 290 290 291 290 289 289 289 289 289 289 289 288 288 286 287 289 290 289 286 281 279 278 277 277 277 276 275 275 274 273 272 272 271 270 270 270 269 270 269 269 269 269 269 268 268 268
292 291 291 291 291 290 290 291 289 289 289 289 290 289 289 289 289 288 287 286 285 287 288 286 281 279 277 277 277 276 275 275 274 273 271 271 271 271 270 270 269 269 269 268 268 268 267 267 267 267 267 267 267 267
291 291 291 291 291 291 291 291 290 290 289 289 287 287 288 289 289 288 287 284 285 278 276 273 274 274 273 272 272 272 272 272 272 272 271 270 270 269 269 268 268 267 267 267 266 266 265 265 265 265 265 266 266 266
290 290 290 290 291 290 291 290 289 290 289 288 288 287 287 286 287 284 283 274 270 270 271 272 272 272 272 272 272 272 272 271 270 269 269 268 268 268 266 266 266 266 265 266 265 265 265 265 266 264 265 266 266 266
290 291 291 291 290 290 286 286 287 286 286 286 287 289 287 280 279 281 275 271 270 270 271 272 272 272 271 271 270 269 269 268 268 268 267 267 267 266 266 266 265 265 265 264 264 264 264 265 265 265 265 265 265 264
290 286 284 280 282 281 284 283 284 284 284 284 283 284 280 279 282 275 274 271 270 270 270 271 271 270 269 267 267 267 266 266 267 267 266 266 266 266 266 266 265 264 264 264 264 264 264 264 264 264 264 264 263 263
282 278 279 278 279 280 281 282 283 283 282 282 280 278 279 280 280 274 272 270 269 269 269 268 268 267 266 266 266 266 266 266 266 266 266 266 265 265 265 265 265 265 264 264 264 264 264 264 264 264 264 264 264 264
277 276 277 276 274 277 279 281 280 278 277 276 275 276 278 279 276 271 269 269 269 268 268 267 266 266 265 266 266 265 265 265 265 265 266 266 265 265 265 264 264 263 263 263 263 263 263 263 264 264 264 264 264 264
272 271 269 271 273 276 276 275 274 274 274 272 272 275 275 275 273 269 269 269 268 267 266 266 266 266 266 266 266 266 266 266 266 266 266 266 265 264 264 263 263 262 262 263 263 263 263 263 264 264 263 263 263 264
272 270 270 270 270 272 271 271 272 271 270 269 271 273 272 270 270 269 269 268 266 266 266 266 266 266 266 266 266 265 265 265 264 264 264 264 264 264 264 263 263 263 263 263 263 263 263 264 265 265 264 263 263 263
269 269 269 269 267 269 271 271 270 270 269 267 267 267 268 269 269 268 267 266 266 266 266 266 266 266 266 265 265 266 265 264 264 263 263 263 263 264 264 264 264 264 264 264 264 264 264 264 264 263 263 263 263 263
268 268 267 268 269 271 271 270 270 269 267 267 266 266 266 267 267 267 267 266 266 266 266 266 266 265 265 265 264 264 264 264 263 263 263 263 263 264 264 264 264 265 265 264 264 264 264 264 264 263 263 263 263 263
268 267 266 264 269 270 269 269 267 266 266 266 266 266 266 266 267 267 267 267 267 266 266 266 266 265 265 264 264 263 263 263 263 263 263 263 264 264 264 265 265 265 265 264 264 264 264 264 264 263 263 263 263 263
266 266 265 265 266 267 266 266 266 265 265 265 266 266 266 266 266 267 267 267 267 266 266 266 266 265 264 264 263 263 263 263 263 263 263 263 264 265 266 265 265 265 265 264 264 263 262 262 262 262 263 263 263 263
Wind_Speed
6 6 6 6 8 9 10 11 13 14 15 16 17 17 18 18 16 12 10 10 6 5 11 8 4 4 6 6 5 6 6 1 2 4 3 4 3 2 3 1 2 3 4 5 5 6 10 8 5 4 7 15 17 13
8 9 9 9 10 9 9 10 12 14 15 16 17 17 17 17 17 17 12 16 12 8 8 13 13 5 0 6 6 5 4 3 3 3 3 3 5 4 5 10 4 5 6 5 3 7 10 8 6 7 9 11 10 12
10 10 11 11 11 12 13 13 14 15 16 17 17 17 17 16 16 18 18 18 11 6 7 2 2 4 10 7 8 5 5 4 3 3 3 3 7 3 7 8 6 4 4 5 9 1 10 10 8 8 8 8 9 13
11 10 10 10 11 12 13 14 14 15 15 15 15 15 15 15 15 16 17 12 9 6 4 3 6 11 6 8 8 10 17 14 14 11 4 3 4 4 6 6 4 7 3 8 13 6 6 7 8 7 8 12 11 13
9 9 9 10 10 11 12 13 14 14 14 15 16 16 16 16 15 15 11 3 6 7 4 8 12 2 7 8 10 8 10 8 5 4 5 3 5 5 7 5 8 7 3 2 3 4 5 2 6 8 15 16 17 19
9 10 11 11 11 13 14 15 15 15 15 15 17 17 18 19 17 9 2 4 5 9 5 4 5 5 9 13 13 9 7 5 5 4 4 5 3 3 4 3 0 2 3 2 2 2 2 6 8 7 16 20 22 21
10 11 11 12 13 13 14 14 15 16 16 17 19 20 20 20 12 2 3 4 7 8 2 6 6 5 10 10 7 5 4 3 5 4 5 5 2 2 3 5 5 4 7 6 5 6 4 4 7 18 22 22 22 22
12 13 14 15 15 16 17 17 18 18 18 19 20 22 18 11 3 2 5 9 14 4 3 3 3 5 6 4 4 4 2 2 5 3 3 3 4 2 4 5 5 8 7 6 1 6 10 13 20 25 25 24 25 24
13 13 13 13 14 15 15 16 16 16 17 19 20 16 8 2 2 7 17 10 2 5 2 2 2 3 8 4 6 4 3 3 2 3 3 2 3 5 5 7 8 12 7 5 7 8 15 24 28 25 25 26 24 23
11 11 12 14 15 16 16 17 18 19 20 20 14 4 4 3 14 8 5 1 2 1 1 3 2 2 6 7 4 6 2 3 3 1 1 3 4 15 15 12 9 10 10 7 10 18 24 27 27 27 25 25 23 24
13 13 13 14 16 16 16 17 19 21 21 14 7 4 10 15 4 1 2 1 1 3 5 4 4 4 4 4 4 2 3 2 3 2 2 2 3 1 3 2 2 3 3 4 12 18 22 27 30 29 28 25 24 25
14 14 14 15 16 16 16 16 17 17 14 17 15 15 7 4 2 2 1 2 4 2 4 3 3 4 3 3 4 2 3 1 5 1 2 3 1 11 9 8 8 7 8 14 19 25 29 30 26 24 24 25 26 26
15 15 14 14 14 14 13 12 12 15 18 14 3 2 2 2 3 3 4 3 2 4 4 3 3 2 2 3 4 3 4 4 1 3 3 1 4 9 12 11 10 14 19 22 23 24 22 21 21 22 25 25 26 27
16 18 17 16 16 12 10 12 14 16 13 4 3 4 3 4 5 4 3 1 2 4 3 3 3 4 4 4 3 4 2 2 3 3 4 3 3 9 11 15 18 20 21 21 22 21 21 21 21 21 21 23 25 25
17 19 18 16 13 11 12 13 16 18 7 4 3 5 7 8 8 7 10 7 9 6 5 3 5 4 5 4 4 3 3 5 5 3 2 4 3 9 13 16 15 16 19 19 19 18 19 21 22 22 22 22 22 23
19 21 17 13 12 12 13 17 17 14 4 6 8 6 7 4 8 10 15 14 10 9 5 5 4 3 6 3 4 7 3 6 2 2 4 3 5 11 15 16 17 16 17 17 16 17 18 18 19 21 21 20 21 22
18 21 19 16 17 15 16 17 10 7 7 6 9 16 18 13 14 17 15 15 8 9 3 5 5 8 2 4 4 4 5 6 3 4 4 7 10 14 15 16 16 15 15 15 16 16 17 16 17 18 18 21 23 23
23 24 21 19 18 21 23 19 8 8 9 17 9 19 21 26 22 22 23 23 13 11 6 6 6 7 5 5 6 6 7 7 6 4 5 10 13 12 12 12 12 13 14 14 16 18 15 16 17 17 20 23 24 22
27 26 24 20 19 23 10 8 13 8 19 13 18 24 27 24 32 37 32 24 19 18 6 5 6 5 8 11 11 7 3 3 3 7 8 9 9 11 11 11 11 12 14 15 16 15 16 16 17 18 22 22 23 25
23 25 25 22 21 18 8 8 12 9 7 11 18 22 22 22 26 25 27 24 23 11 8 5 6 16 11 5 8 6 7 10 10 8 5 7 11 13 12 14 12 14 13 14 14 13 16 18 17 20 21 22 23 27
27 27 28 24 25 28 14 10 11 8 7 12 21 20 12 19 25 22 20 18 12 8 8 9 9 11 7 7 6 6 6 5 4 4 6 9 11 14 13 13 14 13 13 13 13 14 15 16 21 22 23 22 25 26
32 29 29 29 21 11 14 16 12 14 12 15 14 13 12 14 20 17 14 12 5 3 3 4 3 2 4 5 6 5 6 7 8 9 9 11 13 15 13 12 13 13 13 12 13 14 16 17 19 20 21 24 24 25
28 29 26 20 13 12 11 19 13 12 6 7 12 5 6 7 9 7 5 4 5 9 8 8 8 7 5 5 7 9 12 13 13 14 14 14 15 14 10 12 10 12 12 11 12 15 17 18 20 20 23 24 25 25
20 19 8 8 13 4 3 4 5 5 5 4 3 5 1 6 6 1 4 4 6 9 11 11 10 9 8 8 10 12 13 14 13 12 13 15 15 12 14 15 10 10 12 11 13 15 18 22 21 23 24 25 25 26
7 2 6 8 9 8 6 6 5 4 4 3 3 3 3 6 1 3 2 2 3 7 11 11 11 10 8 8 9 10 13 15 16 16 14 15 17 18 17 14 11 12 13 13 16 18 20 22 24 23 24 25 26 27
5 9 7 12 9 6 6 5 4 4 3 3 4 9 5 3 3 3 2 1 3 8 10 10 9 8 7 9 10 11 13 14 16 17 17 18 19 20 20 18 16 14 12 14 19 21 23 22 23 24 25 27 27 27
5 6 7 6 9 8 7 6 5 5 5 6 6 7 4 4 3 2 2 2 7 9 8 7 6 7 9 10 12 14 16 18 20 21 22 20 18 17 17 19 22 19 17 18 22 21 22 21 22 24 27 28 27 26
4 9 5 20 7 5 5 6 4 5 4 7 12 3 6 4 3 1 3 7 6 5 6 8 9 11 13 15 16 18 19 21 23 24 23 21 17 16 15 17 18 21 23 23 22 21 21 20 20 21 26 28 26 24
4 12 15 5 5 3 3 3 4 4 9 8 3 3 3 4 7 10 7 4 2 7 9 10 12 14 17 19 19 21 22 24 26 27 26 26 26 23 22 20 18 17 18 20 18 18 19 20 22 20 24 25 25 23
6 16 6 4 3 2 2 10 15 23 21 15 12 15 17 13 10 8 5 5 8 5 6 13 18 21 25 28 31 32 30 28 26 26 27 27 27 27 22 20 22 18 19 21 24 22 20 22 21 19 20 23 24 23
8 6 4 4 5 7 16 22 21 24 17 6 8 9 9 7 6 6 8 10 7 4 6 11 20 21 28 32 31 32 35 32 30 26 24 26 28 25 25 24 23 23 25 24 22 22 21 21 22 23 23 25 25 22
5 2 5 4 7 11 17 14 15 6 5 4 3 4 5 4 4 3 8 13 12 10 11 14 22 27 29 34 31 30 30 30 28 26 26 24 25 27 26 25 25 22 23 22 19 20 20 21 22 23 26 29 26 22
6 6 5 6 6 6 9 15 5 7 4 3 3 4 3 3 4 4 6 11 13 11 13 20 26 28 31 34 31 30 24 21 20 22 21 20 20 22 24 22 22 29 17 22 26 24 23 21 22 22 22 23 22 21
Wind_Direction
96 87 74 52 35 25 17 10 8 5 4 3 360 359 359 356 354 359 345 347 333 265 279 294 315 324 306 279 276 343 312 190 236 240 258 278 279 307 289 215 229 223 208 224 230 268 269 4 305 332 338 326 327 7
92 81 64 52 38 25 17 16 15 10 6 5 3 2 3 1 357 359 353 337 321 260 266 291 304 324 43 258 267 234 258 290 260 251 240 295 246 225 269 271 178 242 231 286 275 310 21 67 63 33 34 50 40 16
81 71 60 48 40 32 25 16 9 5 3 1 2 1 0 2 358 356 353 344 354 323 303 296 228 296 324 316 259 244 260 250 276 252 307 276 262 280 265 264 266 250 238 272 292 296 43 70 61 43 12 355 342 327
67 59 46 35 25 16 7 1 358 357 357 355 354 352 351 346 345 345 348 1 15 339 316 305 263 321 314 311 307 255 256 275 287 290 301 267 265 272 272 297 286 289 255 271 277 304 84 71 41 349 344 340 332 320
55 41 24 12 5 359 354 351 349 348 347 344 342 342 340 337 335 336 337 0 22 21 306 289 307 243 317 326 325 279 277 277 268 236 225 243 266 292 264 291 262 278 309 298 355 44 94 17 344 338 342 340 331 327
29 16 6 357 352 351 349 347 346 344 344 340 335 333 332 328 325 327 291 259 322 355 311 301 314 299 320 327 321 303 276 253 241 278 270 268 247 287 282 236 158 243 267 228 93 112 239 320 327 335 328 327 324 325
7 3 357 352 350 348 345 345 342 336 332 328 325 323 320 321 318 207 235 265 325 331 293 292 303 283 316 318 311 285 270 236 244 260 246 263 264 288 278 267 140 228 175 151 102 40 331 283 303 319 320 321 319 324
357 354 352 351 348 345 343 340 339 338 338 336 331 325 323 325 6 253 242 282 298 289 237 269 287 294 334 318 309 304 296 247 228 285 293 274 292 240 260 252 186 185 175 171 208 323 321 314 316 316 317 320 317 320
343 342 340 336 332 333 332 331 333 335 335 333 327 318 308 294 310 306 305 317 260 197 256 248 297 328 337 320 306 304 326 281 239 243 223 237 212 231 231 231 227 212 205 218 301 334 336 325 316 315 319 320 316 316
334 337 339 333 332 334 334 335 337 340 337 334 330 307 270 293 320 316 335 29 31 228 228 257 300 298 326 341 308 308 289 306 292 106 300 231 257 260 268 257 234 212 222 279 332 336 329 318 314 312 314 317 314 315
330 332 331 326 328 329 327 330 333 337 341 345 321 288 301 315 310 283 283 303 349 217 204 225 236 283 304 291 309 290 307 286 275 120 268 240 259 298 341 32 133 143 197 288 315 316 314 314 312 308 310 313 314 315
324 324 326 321 317 318 319 322 330 336 339 327 309 293 308 312 303 288 242 263 230 244 197 206 202 222 262 263 268 235 273 235 256 20 262 247 63 17 31 47 38 10 330 312 304 304 305 307 308 305 306 312 314 316
319 319 319 316 313 313 315 318 321 330 334 329 311 318 308 266 260 225 206 203 237 199 205 208 247 210 229 244 257 265 246 244 334 236 239 250 63 30 26 10 349 324 309 306 306 310 313 314 313 313 312 315 316 318
318 318 324 320 316 309 302 316 322 333 348 308 314 293 214 222 241 214 230 287 238 220 241 235 257 221 197 229 234 248 241 273 251 241 237 124 48 1 345 334 329 321 320 323 323 325 324 321 317 316 315 316 318 319
313 309 309 312 307 305 305 305 310 319 322 275 241 244 225 241 261 253 245 251 255 246 246 235 239 225 209 234 211 270 235 241 231 242 101 140 348 324 328 330 328 325 322 324 324 324 324 323 321 319 320 320 319 319
308 302 307 310 299 299 293 294 302 309 245 231 230 253 240 273 256 250 253 251 265 248 228 219 241 230 222 224 209 219 239 230 227 178 168 240 307 308 316 317 320 315 317 317 320 323 326 327 325 323 326 325 323 324
288 276 297 299 298 302 292 292 292 234 233 221 238 238 241 265 260 259 266 268 254 192 216 212 224 219 102 227 223 218 226 270 163 188 240 279 290 304 308 311 310 313 318 321 323 324 325 324 325 325 322 325 323 327
279 286 287 289 288 288 281 263 238 240 241 227 228 245 243 254 260 264 269 266 223 219 212 222 230 204 219 229 233 230 232 263 278 250 286 291 297 299 307 310 313 317 319 321 323 323 321 324 324 321 318 322 325 327
295 292 289 280 278 281 256 225 206 244 226 239 242 247 252 259 262 271 269 261 254 232 218 214 231 224 232 246 269 288 314 308 284 293 302 291 298 308 315 311 316 313 315 317 322 324 320 320 322 320 321 324 324 322
294 293 290 286 271 268 254 238 212 244 234 243 243 249 251 254 266 267 269 262 243 219 211 227 236 260 263 255 266 270 284 303 312 313 302 267 311 316 316 313 311 314 317 314 319 317 320 319 325 323 326 325 320 322
288 289 290 288 267 250 250 243 229 232 238 242 266 253 253 258 258 256 255 247 209 222 232 243 257 268 281 278 288 295 299 310 321 320 313 314 312 311 318 317 316 320 315 319 320 318 323 324 325 327 325 323 323 324
285 289 293 291 249 233 235 225 229 244 243 253 254 256 257 258 263 259 257 196 224 266 318 345 329 18 7 4 12 6 350 338 326 321 313 310 313 316 318 312 316 311 313 316 316 318 321 323 329 324 323 325 327 330
285 283 270 257 248 235 247 243 225 232 223 228 252 229 229 238 248 216 170 76 61 28 36 43 53 59 48 15 354 342 333 333 332 329 324 320 322 324 312 314 310 306 311 312 308 321 326 332 331 328 328 333 335 333
264 256 237 233 219 262 266 213 249 300 289 309 288 260 332 8 346 358 59 49 48 60 58 46 34 26 7 349 340 337 332 333 335 338 332 330 332 330 318 319 302 296 311 302 307 321 329 339 335 336 338 337 338 340
251 319 360 355 11 350 5 342 1 357 356 320 302 330 352 330 357 69 85 100 50 21 18 17 10 2 354 343 339 341 340 343 343 344 347 335 330 325 325 318 305 297 313 307 309 317 325 333 336 337 338 341 339 333
54 25 29 6 354 354 344 327 343 344 302 301 3 329 315 313 21 49 62 114 8 354 354 358 2 4 3 358 356 356 350 346 343 342 343 335 326 319 318 314 310 307 304 315 314 316 317 322 331 333 335 340 338 333
40 0 4 1 313 285 283 282 349 9 10 7 349 326 326 318 47 68 139 347 345 347 349 359 15 20 13 9 7 3 356 351 346 339 336 331 323 311 308 307 302 299 298 307 302 310 314 310 322 329 330 332 335 336
26 16 358 326 331 336 325 360 12 15 13 354 332 298 325 342 10 320 323 327 339 7 34 41 35 27 18 9 359 351 345 341 336 333 329 328 332 331 317 313 307 300 297 292 301 297 305 301 314 321 321 325 328 335
356 347 341 316 314 341 28 16 349 342 331 327 276 267 299 319 318 312 315 328 51 79 67 51 34 19 8 1 352 345 339 335 331 331 327 322 325 328 328 322 316 313 311 305 301 297 295 301 304 302 307 322 325 325
330 342 324 313 316 286 293 334 324 312 308 294 273 280 288 289 293 289 266 182 149 115 38 22 12 3 356 348 341 336 334 333 333 329 320 314 315 321 323 323 323 322 316 311 306 300 302 302 299 297 304 320 324 324
310 324 304 270 271 289 311 315 314 310 305 301 290 273 285 294 296 263 213 196 208 254 319 338 345 342 344 341 334 329 325 325 323 320 315 311 315 320 322 322 322 321 315 314 314 308 306 303 302 302 303 312 318 315
301 296 324 294 292 298 314 317 315 299 299 307 292 304 309 297 277 257 232 221 236 267 305 316 320 317 323 325 324 323 322 317 315 313 312 316 317 318 317 320 322 314 311 313 312 308 306 306 305 304 304 306 308 305
289 297 294 295 299 315 320 342 311 324 290 287 285 295 286 267 262 263 258 239 249 278 298 314 320 313 312 320 322 322 324 323 324 321 311 309 310 313 312 308 304 306 310 314 316 315 309 307 304 304 304 307 307 305